Location: Ripley
(48.3812°N, 115.4473°W)
Time: 17:11:46
(UTC+00:00)

CAS-6 - Pass Details

Date: 30 June 2022
Orbit: 613 x 634 km, 97.9° (Epoch: 19 August)

Event Time Altitude Azimuth Distance (km) Brightness Sun altitude
Exits shadow 06:45:10 17° 219° (SW) 1,588 ? -17.2°
Maximum altitude 06:47:34 27° 265° (W) 1,209 ? -17.3°
Drops below altitude 10° 06:51:17 10° 324° (NW) 2,006 ? -17.4°
Sets 06:53:46 0° 337° (NNW) 2,914 ? -17.5°
